sat.trackr.live / text

‹ back to catalog

STARLINK-30273

NORAD 57681 · 2023-124U

PAYLOAD ACTIVE UNKNOWN

§ Identity

Operator
Country
US
Launch date
2023-08-22
Launch site
AFWTR
Launch vehicle
Mass (kg)
RCS (m²)

Purposes: comms

External: N2YO · Heavens-Above · Gunter

§ Orbital elements

Epoch: 2026-05-25T04:06:56.424096Z

Period
94.01 min
Inclination
53.1601°
Eccentricity
0.0001087
Mean motion
15.31699730 rev/d
Perigee alt
470.0 km
Apogee alt
471.5 km
Semi-major
6,848.9 km
B*
2.1740e-5
RAAN
211.5442°
Arg perigee
88.0965°
Mean anomaly
272.0161°
Rev number
15,527

§ Raw data

STARLINK-302731 57681U 23124U   26145.17148639  .00000310  00000+0  21740-4 0  99972 57681  53.1601 211.5442 0001087  88.0965 272.0161 15.31699730155279

JSON: /api/v1/satellites/57681 · /tle

For live sub-satellite position, see the globe view (requires WebGL).

§ Visibility from observer

Set your observer location to see the next 7 days of passes ≥ 10°. The values pass through the URL so the page stays shareable.

No JS? Fill the form by hand. The geolocation button needs JavaScript.